Temp
-9 -9 -9 -8 -8 -8 -8 -8 -8 -7 -7 -7 -7 -7 -7 -6 -6 -6 -6 -6 -5 -6 -6 -6 -6 -6 -6 -6 -6 -7 -7 -7 -7 -7 -7 -7 -8 -8 -8 -8 -8 -8 -8 -8 -8 -8 -7 -7 -6
-9 -9 -9 -9 -8 -8 -8 -8 -7 -8 -8 -8 -8 -7 -7 -6 -6 -6 -5 -5 -6 -6 -6 -6 -6 -6 -6 -7 -7 -7 -7 -7 -7 -7 -8 -8 -8 -8 -8 -8 -8 -8 -8 -8 -8 -8 -8 -7 -7
-9 -10 -9 -9 -9 -8 -8 -8 -7 -8 -8 -8 -7 -7 -7 -7 -7 -7 -6 -6 -6 -6 -7 -7 -6 -7 -7 -7 -8 -8 -8 -8 -8 -8 -8 -8 -9 -9 -9 -9 -9 -9 -9 -9 -8 -8 -8 -7 -7
-9 -10 -9 -10 -9 -8 -8 -8 -8 -9 -9 -8 -8 -8 -8 -7 -7 -7 -7 -6 -6 -6 -7 -6 -7 -7 -7 -8 -8 -8 -8 -8 -8 -8 -8 -9 -9 -9 -9 -9 -9 -9 -9 -9 -9 -9 -8 -8 -8
-9 -10 -10 -10 -9 -8 -8 -8 -9 -10 -9 -9 -9 -9 -8 -8 -8 -8 -8 -7 -7 -7 -6 -6 -6 -7 -8 -8 -8 -8 -8 -8 -8 -9 -9 -9 -9 -9 -9 -9 -9 -9 -9 -9 -9 -9 -8 -8 -8
-9 -9 -10 -9 -9 -8 -9 -9 -9 -10 -9 -9 -9 -9 -8 -8 -8 -8 -8 -8 -7 -7 -6 -6 -7 -7 -8 -8 -8 -8 -8 -9 -9 -9 -9 -9 -9 -9 -9 -9 -9 -9 -9 -9 -9 -8 -8 -8 -8
-9 -9 -10 -10 -9 -9 -9 -8 -9 -10 -9 -9 -9 -8 -8 -8 -8 -8 -8 -7 -7 -7 -7 -7 -7 -8 -8 -8 -9 -9 -9 -9 -8 -8 -9 -9 -9 -9 -9 -9 -9 -9 -9 -9 -9 -9 -9 -8 -8
-9 -9 -10 -9 -8 -9 -9 -10 -9 -9 -9 -8 -9 -9 -9 -8 -8 -8 -8 -8 -7 -7 -7 -7 -7 -7 -8 -8 -8 -8 -8 -8 -8 -9 -9 -9 -9 -9 -9 -9 -10 -10 -9 -9 -9 -9 -9 -9 -9
-9 -10 -10 -9 -9 -9 -9 -9 -9 -10 -10 -9 -9 -9 -10 -9 -8 -8 -8 -8 -8 -7 -7 -7 -7 -7 -8 -8 -8 -8 -8 -8 -8 -9 -9 -9 -9 -9 -9 -9 -9 -9 -9 -9 -9 -9 -9 -9 -9
-9 -10 -10 -9 -9 -9 -9 -9 -8 -9 -10 -10 -9 -9 -9 -9 -9 -8 -8 -8 -8 -8 -8 -8 -7 -8 -8 -8 -8 -8 -8 -8 -8 -9 -9 -9 -9 -9 -9 -9 -9 -9 -9 -9 -9 -9 -9 -10 -10
-10 -10 -10 -10 -9 -9 -9 -9 -9 -9 -9 -10 -10 -10 -10 -9 -9 -9 -8 -7 -7 -8 -8 -7 -8 -8 -8 -8 -8 -8 -8 -8 -8 -9 -9 -9 -9 -9 -9 -9 -9 -9 -10 -10 -10 -10 -10 -10 -10
-10 -10 -10 -10 -9 -9 -9 -8 -8 -8 -9 -10 -10 -10 -9 -9 -9 -9 -8 -8 -8 -8 -8 -8 -8 -8 -8 -8 -8 -8 -8 -8 -8 -9 -9 -9 -9 -9 -9 -10 -10 -10 -10 -10 -10 -10 -10 -10 -10
-9 -10 -10 -10 -10 -10 -9 -9 -9 -8 -8 -9 -9 -10 -9 -9 -9 -10 -9 -9 -9 -8 -8 -8 -8 -8 -8 -8 -8 -8 -9 -8 -8 -8 -9 -9 -9 -9 -9 -9 -9 -10 -10 -10 -10 -10 -10 -10 -11
-9 -10 -10 -10 -10 -10 -10 -10 -9 -9 -8 -9 -9 -9 -8 -8 -9 -9 -9 -9 -8 -8 -8 -8 -8 -8 -8 -8 -8 -9 -9 -8 -8 -8 -9 -9 -9 -9 -10 -9 -10 -10 -10 -10 -10 -10 -10 -10 -10
-8 -8 -9 -10 -10 -10 -10 -9 -9 -9 -9 -9 -9 -9 -7 -8 -9 -9 -8 -8 -8 -8 -8 -8 -8 -8 -8 -8 -9 -9 -9 -9 -9 -9 -9 -9 -9 -9 -10 -10 -10 -11 -10 -10 -10 -10 -10 -10 -10
-8 -8 -9 -10 -10 -10 -10 -9 -9 -10 -10 -10 -10 -9 -7 -8 -9 -8 -8 -8 -8 -8 -8 -8 -8 -8 -8 -9 -9 -9 -9 -9 -9 -9 -10 -10 -9 -9 -10 -10 -10 -10 -10 -10 -10 -10 -10 -10 -10
-8 -8 -9 -10 -10 -10 -9 -9 -9 -10 -10 -10 -10 -9 -8 -8 -8 -8 -8 -8 -8 -8 -8 -8 -8 -8 -8 -8 -9 -9 -9 -9 -9 -10 -10 -10 -10 -10 -10 -10 -10 -10 -10 -10 -10 -10 -10 -10 -10
-8 -8 -8 -9 -10 -10 -9 -9 -9 -10 -10 -10 -10 -9 -8 -8 -8 -8 -8 -8 -7 -7 -8 -8 -8 -8 -8 -8 -8 -8 -9 -9 -10 -10 -10 -10 -9 -10 -10 -10 -10 -10 -10 -10 -10 -10 -10 -10 -10
-7 -7 -8 -9 -9 -9 -10 -10 -9 -9 -10 -10 -10 -9 -9 -8 -9 -8 -8 -8 -7 -8 -8 -8 -8 -8 -8 -8 -8 -8 -9 -9 -9 -9 -9 -9 -9 -10 -10 -10 -10 -10 -10 -10 -10 -10 -10 -10 -10
-8 -8 -8 -8 -9 -9 -9 -9 -8 -9 -9 -9 -9 -8 -8 -8 -9 -9 -9 -8 -8 -8 -9 -9 -9 -9 -9 -8 -9 -9 -9 -9 -9 -9 -9 -9 -9 -9 -9 -10 -10 -10 -10 -10 -10 -10 -11 -10 -10
-8 -8 -8 -8 -9 -9 -8 -8 -8 -9 -9 -8 -8 -8 -9 -8 -9 -9 -9 -8 -9 -9 -10 -9 -9 -9 -9 -9 -9 -9 -9 -9 -9 -9 -9 -9 -9 -9 -10 -10 -10 -10 -10 -10 -10 -10 -10 -10 -10
-9 -9 -9 -9 -9 -9 -9 -7 -8 -8 -9 -10 -9 -9 -9 -8 -9 -9 -9 -9 -10 -10 -10 -10 -10 -10 -9 -9 -9 -9 -9 -10 -10 -10 -10 -10 -10 -10 -10 -10 -10 -10 -10 -10 -11 -11 -11 -11 -11
-9 -10 -10 -9 -9 -9 -9 -9 -8 -9 -9 -9 -9 -9 -9 -9 -9 -9 -9 -10 -10 -11 -11 -10 -10 -10 -10 -10 -10 -10 -10 -10 -10 -10 -10 -10 -10 -10 -10 -10 -10 -10 -11 -11 -11 -11 -11 -11 -11
-11 -10 -10 -10 -10 -10 -10 -10 -8 -8 -9 -10 -10 -9 -9 -10 -9 -9 -9 -9 -10 -10 -10 -10 -11 -11 -11 -11 -11 -11 -11 -11 -11 -10 -11 -11 -11 -10 -10 -10 -10 -10 -11 -11 -11 -11 -11 -11 -11
-11 -11 -11 -10 -11 -9 -10 -10 -9 -9 -9 -10 -10 -10 -10 -9 -9 -9 -10 -9 -9 -10 -10 -10 -11 -11 -11 -11 -11 -12 -12 -11 -11 -11 -10 -10 -10 -10 -10 -10 -9 -10 -10 -10 -11 -11 -11 -12 -12
-11 -11 -11 -10 -10 -10 -11 -9 -9 -10 -10 -10 -10 -10 -11 -11 -10 -10 -9 -9 -9 -9 -10 -10 -11 -11 -11 -11 -12 -12 -12 -12 -11 -11 -11 -11 -11 -11 -11 -10 -10 -10 -10 -10 -11 -11 -12 -11 -11
-12 -12 -12 -12 -11 -10 -9 -9 -9 -9 -10 -10 -10 -11 -11 -11 -11 -11 -11 -11 -10 -9 -10 -11 -11 -11 -11 -11 -12 -12 -12 -12 -11 -11 -11 -11 -11 -11 -11 -11 -10 -10 -11 -11 -11 -11 -11 -11 -11
-13 -13 -12 -12 -12 -11 -10 -9 -9 -9 -9 -9 -10 -10 -10 -11 -11 -11 -11 -11 -11 -10 -11 -10 -10 -11 -11 -12 -12 -11 -11 -11 -11 -11 -11 -12 -11 -11 -11 -11 -11 -11 -11 -11 -11 -11 -12 -12 -12
-12 -13 -12 -12 -12 -12 -11 -10 -10 -10 -10 -9 -10 -10 -10 -11 -11 -10 -10 -10 -10 -11 -11 -11 -11 -12 -12 -12 -11 -12 -11 -11 -12 -12 -12 -10 -12 -11 -11 -11 -11 -11 -12 -12 -12 -12 -12 -12 -12
-12 -12 -12 -13 -13 -13 -12 -10 -11 -11 -11 -10 -10 -9 -10 -10 -11 -11 -11 -11 -11 -12 -11 -11 -11 -12 -11 -11 -11 -12 -12 -12 -12 -12 -12 -12 -12 -11 -12 -12 -11 -11 -12 -12 -12 -12 -12 -12 -13
Height
5901 5901 5901 5903 5906 5904 5905 5906 5907 5907 5908 5907 5908 5911 5911 5910 5910 5912 5910 5911 5911 5911 5912 5913 5914 5914 5913 5913 5913 5913 5913 5913 5913 5913 5912 5912 5911 5910 5909 5908 5907 5906 5905 5903 5902 5899 5897 5895 5894
5900 5901 5900 5902 5902 5904 5905 5905 5905 5905 5906 5906 5907 5908 5910 5911 5910 5911 5912 5911 5910 5910 5910 5911 5912 5912 5912 5912 5912 5913 5913 5912 5912 5912 5911 5910 5909 5909 5908 5907 5906 5905 5904 5903 5901 5899 5896 5893 5892
5898 5901 5901 5901 5901 5905 5906 5905 5904 5904 5904 5904 5906 5907 5908 5910 5910 5910 5911 5911 5911 5911 5911 5912 5912 5911 5911 5911 5911 5911 5912 5912 5911 5911 5910 5909 5908 5907 5906 5906 5905 5904 5903 5902 5900 5898 5895 5892 5890
5897 5900 5902 5900 5901 5905 5906 5904 5903 5903 5902 5903 5906 5907 5909 5909 5908 5909 5909 5910 5909 5909 5910 5911 5911 5910 5909 5909 5909 5909 5910 5910 5910 5909 5909 5907 5906 5905 5904 5904 5903 5902 5901 5900 5898 5896 5895 5892 5888
5896 5899 5900 5898 5901 5904 5905 5904 5902 5903 5903 5905 5906 5908 5908 5907 5906 5907 5908 5909 5910 5910 5910 5909 5909 5909 5908 5908 5907 5908 5908 5908 5908 5908 5907 5906 5905 5903 5902 5901 5900 5900 5899 5898 5897 5896 5894 5892 5888
5895 5897 5899 5896 5899 5904 5904 5903 5903 5903 5905 5906 5907 5907 5905 5905 5905 5906 5908 5908 5909 5909 5908 5907 5907 5907 5907 5907 5907 5906 5907 5906 5906 5906 5906 5905 5903 5902 5900 5899 5898 5898 5896 5896 5895 5894 5892 5892 5888
5892 5895 5895 5895 5898 5901 5903 5902 5902 5903 5905 5905 5905 5904 5903 5903 5904 5906 5907 5907 5907 5907 5907 5906 5905 5905 5905 5906 5907 5906 5906 5906 5905 5905 5905 5904 5902 5900 5899 5898 5898 5896 5894 5893 5893 5892 5890 5890 5888
5890 5893 5893 5893 5898 5899 5899 5900 5900 5903 5904 5905 5904 5903 5903 5903 5905 5906 5906 5905 5905 5905 5905 5906 5905 5904 5904 5905 5906 5906 5906 5905 5905 5904 5903 5902 5901 5899 5898 5897 5897 5896 5894 5892 5891 5890 5888 5887 5886
5887 5891 5890 5893 5895 5897 5898 5898 5898 5900 5902 5903 5903 5902 5903 5904 5904 5904 5905 5904 5904 5904 5904 5904 5904 5903 5903 5905 5905 5905 5905 5904 5905 5904 5902 5902 5900 5899 5899 5897 5896 5895 5894 5892 5890 5889 5887 5886 5885
5885 5888 5888 5891 5894 5894 5895 5897 5898 5898 5900 5901 5902 5902 5903 5905 5904 5905 5903 5903 5902 5903 5903 5904 5904 5903 5903 5904 5904 5904 5902 5903 5903 5902 5901 5900 5899 5899 5898 5897 5895 5894 5893 5891 5889 5888 5887 5885 5883
5883 5887 5886 5888 5891 5892 5894 5894 5895 5896 5899 5900 5901 5902 5903 5904 5904 5904 5903 5902 5902 5903 5903 5903 5903 5904 5904 5904 5903 5903 5901 5901 5901 5900 5899 5899 5898 5897 5897 5895 5894 5892 5891 5889 5887 5886 5885 5883 5881
5881 5884 5884 5885 5888 5889 5889 5893 5894 5895 5897 5898 5900 5902 5903 5903 5903 5902 5902 5902 5902 5902 5903 5903 5903 5903 5902 5903 5902 5900 5899 5898 5898 5897 5896 5896 5896 5896 5895 5892 5891 5890 5889 5887 5886 5884 5882 5880 5878
5877 5881 5880 5880 5884 5887 5888 5891 5891 5894 5895 5895 5897 5900 5902 5903 5902 5901 5900 5899 5900 5901 5902 5903 5902 5901 5900 5899 5899 5898 5896 5896 5896 5895 5894 5894 5894 5893 5891 5890 5889 5888 5887 5884 5883 5881 5878 5876 5875
5875 5874 5876 5878 5881 5884 5886 5888 5889 5892 5892 5892 5893 5897 5900 5901 5900 5899 5899 5899 5899 5900 5901 5901 5900 5899 5897 5895 5895 5895 5893 5894 5894 5893 5892 5891 5890 5889 5887 5887 5886 5885 5883 5881 5879 5878 5877 5875 5873
5870 5871 5872 5876 5879 5880 5880 5883 5886 5890 5889 5887 5888 5891 5897 5897 5897 5897 5897 5897 5898 5899 5900 5899 5897 5896 5895 5894 5893 5893 5892 5892 5892 5891 5889 5888 5887 5886 5886 5884 5881 5879 5879 5879 5877 5876 5875 5873 5871
5868 5869 5871 5875 5876 5876 5876 5879 5883 5884 5885 5883 5883 5885 5890 5894 5894 5895 5895 5895 5896 5896 5897 5896 5895 5893 5892 5891 5891 5891 5890 5890 5890 5888 5887 5885 5884 5885 5883 5881 5879 5877 5878 5876 5872 5871 5872 5870 5869
5865 5868 5869 5871 5871 5872 5871 5875 5878 5878 5879 5877 5877 5880 5884 5890 5890 5892 5892 5892 5892 5892 5891 5891 5891 5889 5888 5888 5888 5888 5888 5886 5887 5885 5885 5882 5880 5880 5879 5878 5877 5875 5873 5870 5869 5868 5867 5866 5864
5858 5860 5862 5866 5868 5866 5866 5869 5873 5875 5875 5875 5875 5876 5878 5882 5886 5888 5889 5889 5888 5888 5888 5888 5887 5885 5885 5885 5885 5886 5885 5884 5882 5882 5880 5879 5877 5874 5872 5872 5870 5870 5869 5866 5863 5861 5861 5859 5859
5852 5853 5855 5861 5863 5859 5861 5860 5863 5867 5868 5871 5870 5872 5875 5876 5877 5882 5883 5884 5883 5883 5883 5883 5882 5882 5881 5881 5881 5882 5882 5881 5880 5879 5878 5876 5875 5872 5869 5868 5868 5866 5863 5860 5857 5854 5853 5852 5852
5848 5850 5855 5855 5853 5849 5850 5849 5855 5860 5860 5862 5863 5868 5870 5871 5872 5874 5876 5875 5876 5877 5878 5878 5878 5878 5876 5876 5876 5876 5877 5878 5877 5875 5873 5871 5870 5869 5867 5864 5862 5860 5858 5856 5853 5850 5846 5844 5843
5842 5844 5848 5849 5844 5840 5842 5842 5848 5851 5852 5855 5859 5861 5864 5865 5866 5869 5871 5870 5871 5871 5872 5872 5873 5872 5872 5871 5871 5870 5871 5871 5870 5869 5867 5866 5864 5863 5862 5860 5858 5854 5851 5849 5846 5844 5842 5839 5836
5834 5836 5837 5838 5835 5835 5833 5832 5840 5844 5846 5849 5852 5854 5858 5859 5860 5862 5864 5864 5865 5866 5867 5866 5866 5866 5865 5865 5864 5863 5863 5863 5862 5862 5860 5858 5856 5853 5851 5849 5848 5846 5843 5840 5838 5836 5833 5830 5827
5829 5826 5828 5829 5828 5827 5829 5826 5835 5837 5840 5844 5846 5847 5849 5852 5853 5855 5856 5857 5858 5859 5860 5860 5860 5859 5859 5858 5858 5858 5855 5855 5854 5853 5852 5850 5848 5846 5844 5842 5840 5837 5834 5831 5828 5827 5824 5822 5820
5818 5819 5818 5820 5822 5818 5825 5822 5822 5832 5837 5837 5838 5840 5841 5843 5844 5846 5847 5849 5851 5852 5852 5852 5853 5853 5852 5851 5850 5850 5850 5848 5846 5845 5843 5841 5839 5838 5836 5833 5831 5829 5826 5823 5820 5817 5815 5814 5812
5810 5812 5810 5810 5809 5808 5819 5816 5814 5824 5830 5832 5832 5832 5833 5834 5835 5836 5838 5840 5842 5844 5844 5844 5844 5844 5844 5844 5843 5843 5842 5841 5840 5838 5836 5834 5832 5831 5829 5826 5824 5821 5818 5814 5811 5809 5806 5804 5803
5802 5802 5801 5798 5800 5801 5803 5797 5804 5814 5819 5822 5824 5826 5824 5824 5826 5828 5829 5832 5834 5835 5836 5836 5837 5837 5837 5836 5836 5835 5834 5833 5832 5831 5828 5826 5823 5820 5819 5817 5816 5813 5810 5806 5803 5801 5799 5796 5794
5797 5795 5797 5791 5790 5788 5790 5792 5796 5802 5809 5812 5815 5817 5817 5818 5819 5820 5822 5824 5823 5823 5824 5827 5827 5827 5827 5828 5827 5826 5824 5822 5822 5819 5818 5816 5813 5810 5809 5808 5805 5802 5800 5797 5794 5791 5790 5789 5787
5782 5786 5784 5782 5777 5777 5775 5781 5786 5795 5799 5803 5805 5806 5807 5809 5811 5810 5811 5813 5814 5814 5815 5818 5817 5817 5817 5817 5816 5814 5811 5810 5811 5810 5807 5806 5804 5801 5799 5798 5796 5793 5791 5789 5786 5784 5780 5779 5778
5774 5770 5771 5771 5770 5764 5764 5767 5776 5780 5784 5789 5794 5795 5797 5798 5798 5799 5802 5802 5802 5802 5804 5807 5808 5804 5802 5801 5801 5802 5800 5800 5800 5799 5798 5796 5795 5794 5792 5790 5787 5784 5781 5779 5778 5775 5773 5771 5769
5758 5757 5757 5755 5756 5754 5753 5753 5760 5762 5766 5770 5775 5780 5784 5786 5787 5789 5790 5789 5791 5792 5794 5796 5796 5792 5789 5787 5789 5789 5791 5785 5789 5788 5788 5787 5786 5785 5784 5780 5778 5776 5773 5769 5767 5766 5764 5761 5759
Wind_Speed
11 10 8 5 5 7 9 7 11 12 12 9 10 8 7 6 6 4 3 2 1 1 2 4 4 2 2 3 4 4 5 6 6 6 7 9 11 12 14 16 17 19 18 19 19 18 16 15 13
14 13 10 9 8 6 7 5 7 12 13 13 10 9 7 6 4 3 4 2 1 3 3 6 6 3 1 2 3 5 6 7 7 8 9 10 12 14 15 17 17 17 18 18 18 18 17 16 14
17 15 13 13 11 6 5 4 5 10 12 15 15 19 13 6 7 6 8 4 3 3 5 8 6 4 2 3 4 5 7 8 8 10 10 11 13 14 16 16 17 17 17 18 17 16 16 17 17
20 17 17 16 15 10 6 6 7 11 12 18 18 20 13 10 11 10 11 11 6 4 6 7 5 3 2 2 2 3 5 7 8 10 11 12 13 14 15 16 17 17 16 16 16 16 17 18 17
24 21 19 20 14 9 8 2 12 5 11 12 16 20 11 8 8 7 9 15 15 9 8 7 6 3 1 2 1 1 3 4 6 7 8 10 12 13 14 15 15 15 15 15 16 17 17 18 19
26 26 22 24 19 13 3 6 9 2 6 10 14 18 9 8 3 5 11 17 15 16 13 10 7 3 1 1 1 1 1 1 2 5 7 10 11 13 14 15 15 16 17 16 16 16 15 15 16
28 26 26 27 22 19 12 7 6 2 7 12 16 15 6 6 7 7 8 10 7 14 11 7 5 5 4 3 2 2 3 5 5 8 10 13 14 16 16 16 16 16 17 18 17 16 16 13 11
31 28 25 26 16 15 16 9 8 4 8 11 15 14 7 7 10 12 10 10 12 6 4 3 2 2 2 3 2 0 2 4 6 6 8 8 9 10 12 13 13 14 17 18 17 14 13 13 12
33 29 27 25 17 18 18 15 11 7 8 9 13 10 5 7 10 10 8 3 3 1 2 3 2 2 2 2 1 2 3 3 4 7 8 8 9 9 8 9 10 11 13 15 15 12 13 15 14
35 30 28 26 19 21 20 17 19 10 8 10 10 9 6 7 14 12 10 1 1 1 2 4 4 3 3 1 1 2 3 6 7 8 9 9 10 11 10 9 10 11 12 13 12 11 13 15 15
36 32 26 26 24 24 24 22 17 15 12 9 6 8 6 13 12 10 5 3 3 2 1 3 1 2 2 4 4 5 6 9 11 11 12 12 11 11 12 12 14 15 13 13 13 12 11 13 16
39 34 30 28 27 29 32 30 28 22 14 13 15 16 11 10 12 12 6 6 6 4 3 3 2 1 4 6 8 11 13 13 13 13 14 13 14 14 14 14 16 16 17 16 17 15 14 14 15
42 38 39 37 32 31 32 29 30 26 25 19 17 16 9 7 8 8 11 9 6 5 5 6 5 6 7 8 11 12 13 14 12 12 13 14 13 12 13 14 15 15 16 17 17 16 15 15 16
45 45 44 41 36 33 34 32 34 28 26 23 21 17 10 4 6 9 13 11 9 9 11 12 11 9 7 9 11 11 12 13 13 12 12 11 10 12 14 15 16 16 16 18 18 19 20 18 16
36 44 46 41 37 36 37 36 34 30 28 28 27 23 3 3 8 10 13 13 13 13 12 13 10 10 9 8 12 11 12 14 14 14 15 15 14 14 15 12 20 20 17 17 19 21 22 22 21
25 39 46 42 41 40 42 35 32 31 28 31 31 31 14 4 12 16 17 15 14 13 11 11 12 12 12 10 12 13 13 15 15 15 17 18 18 16 18 17 15 15 21 22 19 25 26 25 24
22 29 49 45 45 46 47 38 39 37 31 33 38 35 25 6 16 18 19 17 13 13 12 12 11 14 14 13 14 14 14 16 14 17 19 21 23 20 18 18 20 25 25 26 25 26 28 27 26
24 28 38 55 50 50 48 42 42 41 38 41 46 33 24 14 18 20 19 17 13 12 12 13 14 16 15 16 16 15 15 16 17 18 22 23 24 24 24 24 23 24 27 26 29 28 28 26 26
30 31 32 40 51 58 56 57 52 47 49 49 53 37 25 18 17 15 17 16 15 14 13 16 18 17 17 19 18 19 18 18 20 22 23 24 24 25 27 26 27 25 26 29 30 34 34 31 33
31 30 27 33 40 51 54 55 49 52 50 50 51 36 28 21 19 15 17 17 15 14 15 17 17 20 22 22 21 21 21 22 24 24 26 27 27 27 28 30 31 31 31 32 33 35 37 39 38
33 32 29 33 41 48 48 48 43 42 46 43 41 35 30 28 20 18 19 19 17 17 16 17 16 21 20 21 22 23 24 25 26 27 28 30 30 31 32 33 33 34 35 37 37 37 38 39 40
35 33 36 37 42 46 49 50 44 40 41 42 40 36 29 33 23 23 18 19 17 19 20 19 18 20 19 18 22 23 23 26 28 30 30 33 35 36 38 39 38 39 40 40 39 39 39 38 39
32 36 38 39 42 47 48 51 42 41 40 39 42 41 35 35 29 27 21 18 20 23 24 24 23 24 24 24 24 24 26 28 30 32 34 36 37 39 39 42 42 40 39 39 38 37 36 35 34
35 36 38 40 43 50 49 53 51 43 40 40 41 40 37 32 34 29 25 22 20 26 27 27 27 26 29 28 28 31 32 33 33 35 37 41 43 42 39 38 38 39 38 37 36 35 34 33 32
36 36 38 41 44 49 44 52 55 49 47 45 44 43 39 36 34 32 31 27 27 28 32 31 30 30 32 33 34 36 38 39 35 35 40 43 40 43 38 38 40 42 44 41 38 36 35 33 33
40 41 43 45 46 46 46 52 47 43 42 42 46 43 44 43 41 39 37 33 32 35 37 36 35 36 36 37 38 40 43 44 45 38 40 40 44 41 41 39 43 42 45 42 39 36 34 32 29
36 41 41 49 51 54 53 52 48 43 39 38 42 48 48 50 50 49 48 45 45 45 48 43 39 39 42 40 41 43 46 50 49 38 44 39 38 37 39 41 40 40 41 38 35 34 34 33 31
40 39 42 45 52 57 60 55 52 48 46 41 40 46 52 56 55 54 55 55 55 58 53 45 44 45 43 46 45 45 47 52 49 50 40 45 38 33 30 36 38 39 39 36 36 37 36 37 37
41 45 46 48 52 57 60 59 54 51 48 44 42 44 45 45 49 55 58 61 63 56 53 49 46 47 48 50 45 53 55 57 44 41 41 39 40 35 34 33 36 42 39 37 38 39 40 41 41
47 48 50 53 54 57 60 61 57 57 53 50 47 44 43 44 45 44 44 48 52 51 53 52 50 50 50 52 51 55 57 31 36 33 34 38 39 35 40 38 36 43 44 41 42 42 43 43 44
Wind_Direction
193 171 197 207 204 142 134 88 106 84 68 53 44 66 70 87 93 77 104 146 188 62 356 315 298 315 348 6 358 350 345 347 349 345 340 334 331 331 331 335 338 341 342 346 348 347 349 348 344
192 178 233 210 218 179 156 118 84 62 43 46 52 46 55 28 59 27 331 357 275 215 251 253 249 242 284 329 336 336 330 330 331 326 323 324 326 326 328 329 332 334 338 340 345 345 340 344 347
191 180 216 212 224 211 164 152 106 44 35 36 27 2 337 329 337 347 319 303 305 297 284 272 265 265 295 318 327 323 321 319 319 318 320 322 322 321 322 325 327 331 335 339 343 342 340 341 341
191 191 203 227 226 215 179 181 79 29 22 32 2 358 355 332 309 297 305 303 285 287 259 260 256 263 273 314 318 317 318 320 320 317 316 318 319 319 323 326 328 329 333 337 341 343 343 341 339
189 190 204 224 222 182 190 183 87 33 22 4 344 339 334 326 284 264 285 302 297 271 272 272 261 252 175 136 85 13 348 332 323 322 321 322 321 322 323 322 325 330 335 334 337 338 344 340 340
190 195 202 216 225 198 171 128 111 52 353 332 322 329 328 328 327 289 280 284 283 271 272 266 246 197 152 173 143 141 162 238 297 308 306 301 300 300 304 309 316 322 322 323 327 326 334 338 336
190 197 206 219 228 233 224 216 150 116 296 325 326 338 343 325 318 310 315 298 294 310 275 258 235 216 214 252 267 287 282 278 290 299 301 297 297 298 300 307 314 317 320 322 327 326 332 336 332
190 193 207 215 208 208 213 177 170 213 278 300 329 340 334 311 322 318 325 283 292 293 287 272 266 213 183 182 123 18 310 306 305 315 319 325 324 320 317 316 316 318 322 328 334 341 345 349 352
190 190 213 218 205 205 207 207 220 205 253 301 340 336 334 330 351 344 355 31 311 298 2 10 45 77 128 157 31 297 305 325 307 309 327 323 325 331 334 331 328 334 334 340 346 356 354 351 350
187 191 210 212 205 217 222 239 257 224 266 303 320 348 269 18 350 335 330 6 275 256 93 54 29 45 57 45 4 321 304 297 294 295 306 314 318 319 317 314 313 319 324 329 332 335 342 341 340
187 193 206 217 213 221 227 232 234 253 277 304 292 307 246 302 320 338 304 287 219 242 282 145 78 2 358 328 319 296 289 296 294 300 302 308 316 314 312 316 313 318 322 318 311 318 324 324 323
189 196 208 219 219 226 234 245 250 255 265 257 261 273 263 294 294 310 289 265 251 214 200 267 233 198 315 305 300 298 295 291 292 296 302 309 312 313 309 307 307 314 314 309 302 303 308 308 306
192 200 214 224 226 229 239 245 251 264 311 276 263 264 268 277 282 279 262 256 229 247 284 260 264 273 271 287 295 298 303 304 302 306 310 306 308 314 316 317 325 327 320 315 310 306 300 302 311
195 208 218 225 226 227 237 243 253 264 298 300 282 278 283 238 253 244 237 237 219 249 265 267 269 265 276 300 306 315 321 321 328 324 321 313 317 320 321 326 323 314 311 309 314 314 310 306 303
215 214 224 222 225 232 245 250 256 263 285 287 289 286 293 215 258 212 207 213 218 233 251 274 264 268 272 286 296 306 316 329 327 329 319 316 314 311 316 312 305 300 298 297 310 309 306 297 297
225 227 223 222 228 234 240 253 258 262 275 276 281 287 300 213 212 199 206 211 220 238 253 260 267 267 274 282 290 304 315 317 319 318 314 311 311 315 309 305 302 304 295 294 295 294 299 292 293
224 228 228 223 231 236 242 253 254 258 261 272 281 280 288 219 198 202 211 216 229 250 264 262 258 260 265 269 278 295 307 308 317 308 310 308 303 307 304 297 290 296 298 293 292 287 292 297 300
226 226 226 225 229 239 246 259 255 251 255 267 278 271 273 252 198 207 219 227 239 254 268 266 259 261 266 266 270 280 288 293 300 298 304 303 303 307 307 304 301 299 296 297 296 295 291 297 295
234 228 221 222 229 240 246 254 256 256 257 259 266 263 261 248 228 221 244 242 246 260 265 269 266 259 262 266 272 272 278 290 291 290 295 294 299 300 305 305 304 301 300 303 302 305 303 301 302
240 240 232 225 225 233 236 246 249 252 252 248 250 253 246 230 220 233 246 254 253 265 275 275 265 262 264 269 272 278 279 280 283 286 288 294 297 299 301 301 303 303 302 299 299 301 301 302 303
247 246 239 232 234 237 241 245 243 241 245 250 254 253 244 231 227 238 234 244 253 264 271 271 268 264 266 268 272 274 278 283 286 288 291 294 295 295 298 299 300 299 300 301 300 298 296 297 298
249 247 241 237 237 243 247 251 246 244 241 245 253 258 256 236 232 234 230 233 248 264 267 264 266 270 268 271 274 279 287 294 296 297 299 299 300 300 302 302 301 300 301 301 299 298 299 300 301
253 249 246 242 240 245 244 254 249 246 245 246 251 256 258 244 237 242 242 238 246 251 260 262 264 270 270 273 275 284 292 299 305 303 300 302 298 296 299 300 298 297 296 297 300 301 301 301 300
253 250 250 248 245 245 246 252 262 253 251 254 256 259 256 254 237 239 252 255 252 249 254 262 269 271 276 278 285 292 295 297 304 301 300 299 300 294 301 305 302 301 301 301 300 302 303 302 301
256 256 255 253 249 250 248 250 259 258 255 253 257 258 258 253 253 254 260 260 263 258 258 264 267 268 273 281 285 289 290 289 294 296 298 294 296 290 294 301 304 308 305 304 304 303 302 302 302
255 254 252 255 254 254 254 249 251 255 257 256 254 255 255 260 263 263 269 272 272 272 270 266 269 267 268 272 277 282 286 287 290 290 298 296 295 295 292 298 299 302 304 302 302 301 301 300 301
262 257 259 258 260 261 258 257 259 257 251 253 253 249 254 256 257 263 267 272 275 278 278 268 267 264 265 268 271 276 280 280 284 290 290 294 294 293 287 294 298 302 300 299 299 300 301 303 303
258 257 254 254 259 260 266 266 264 260 260 256 249 251 251 250 257 262 262 266 266 272 271 263 260 261 261 264 265 273 272 274 283 279 285 291 295 298 289 291 296 299 297 296 299 301 301 300 300
257 260 256 257 257 261 263 262 266 267 264 260 254 251 252 255 254 256 260 262 263 264 261 262 262 260 259 263 258 263 268 272 269 276 286 296 283 286 282 291 301 296 292 292 296 298 297 298 297
266 261 255 254 253 255 261 262 262 264 262 260 257 252 250 252 254 260 257 257 256 255 260 262 264 262 260 260 263 260 271 271 281 280 285 287 283 284 274 295 296 292 292 289 289 289 289 291 292